Location: Caltech
(34.1382°N, 118.1253°W)
Time: 06:30:50
(UTC-07:00)

CZ-2C R/B - Visible Passes

Search period start: 31 July 2014 00:00
Search period end: 10 August 2014 00:00
Orbit: 704 x 911 km, 98.1° (Epoch: 30 July)

Date Brightness Start Highest point End Pass type
(mag) Time Alt. Az. Time Alt. Az. Time Alt. Az.
31 Jul 4.0 03:39:49 11° SE 03:44:19 43° ENE 03:48:54 10° N visible
31 Jul 4.4 05:21:08 10° SW 05:24:19 17° W 05:27:26 10° NW visible
01 Aug 5.0 03:15:58 10° ESE 03:19:58 24° ENE 03:23:51 10° NNE visible
01 Aug 3.8 04:56:20 15° SSW 04:59:43 30° W 05:03:58 10° NW visible
02 Aug 5.7 02:53:14 10° E 02:55:42 14° ENE 02:58:08 10° NE visible
02 Aug 3.0 04:31:44 19° S 04:35:10 54° W 04:39:54 10° NNW visible
03 Aug 2.9 04:07:08 20° SSE 04:10:41 84° ENE 04:15:30 10° N visible
04 Aug 3.9 03:42:33 16° SE 03:46:15 46° ENE 03:50:49 10° N visible
04 Aug 4.5 05:23:39 11° SW 05:26:18 15° W 05:29:04 10° WNW visible
05 Aug 4.9 03:17:57 10° SE 03:21:53 26° ENE 03:25:48 10° NNE visible
05 Aug 3.8 04:59:02 18° SW 05:01:40 27° W 05:05:45 10° NW visible
06 Aug 5.6 02:55:01 10° E 02:57:37 15° ENE 03:00:11 10° NE visible
06 Aug 3.1 04:34:26 24° SSW 04:37:07 49° W 04:41:45 10° NNW visible
07 Aug 2.8 04:09:50 26° SSE 04:12:36 89° ENE 04:17:24 10° NNW visible
08 Aug 3.7 03:45:13 21° SE 03:48:10 48° ENE 03:52:45 10° N visible
08 Aug 4.6 05:26:19 11° WSW 05:28:16 14° W 05:30:39 10° WNW visible
09 Aug 4.8 03:20:37 14° ESE 03:23:48 27° ENE 03:27:46 10° NNE visible
09 Aug 3.9 05:01:43 20° SW 05:03:37 25° W 05:07:31 10° NW visible
